40P/Vaisala 1 (2004)

Japanese version
Home page
Total 6,336 html files since Dec. 4, 1995
Updated on August 7, 2004

---------------------------------------------------------------------

* Profile

* Orbital Elements

Epoch 2004 Feb. 5.0 TT = JDT 2453040.5  
T 2004 Jan. 22.89679 TT                                 Muraoka 
q   1.7959140            (2000.0)            P               Q
n   0.09102119     Peri.   47.18935     -0.98890482     +0.04331148
a   4.8944931      Node   134.73357     -0.07958257     -0.96216821
e   0.6330746      Incl.   11.53852     +0.12543475     -0.26899153
P  10.83
From 299 observations 1939-1993, mean residual 0".99.  Nongravitational
   parameters A1 = -0.01 +/- 0.02, A2 = -0.0108 +/- 0.0003.

* Finding Charts

* Magnitudes Graph

        m1 = 10.5 + 5 log d + 15.0 log r

---------------------------------------------------------------------

The orbital elements are calculated by Kenji Muraoka.
The charts are made with StellaNavigator Ver.2.0 for Windows (AstroArts / ASCII).
The magnitudes graphs are made with Comet for Windows.

---------------------------------------------------------------------

Copyright(C) 1995-2008 Seiichi Yoshida (comet@aerith.net). All rights reserved.